sat.trackr.live / text

‹ back to catalog

STARLINK-37584

NORAD 69844 · 2026-154AB

PAYLOAD ACTIVE UNKNOWN

§ Identity

Operator
Country
US
Launch date
2026-07-05
Launch site
AFETR
Launch vehicle
Mass (kg)
RCS (m²)

Purposes: comms

External: N2YO · Heavens-Above · Gunter

§ Orbital elements

Epoch: 2026-09-20T05:02:41.997120Z

Period
93.85 min
Inclination
53.1572°
Eccentricity
0.0001781
Mean motion
15.34402491 rev/d
Perigee alt
461.5 km
Apogee alt
463.9 km
Semi-major
6,840.8 km
B*
6.6101e-4
RAAN
333.0498°
Arg perigee
90.5782°
Mean anomaly
269.5424°
Rev number
1,319

§ Raw data

STARLINK-375841 69844U 26154AB  26263.21020830  .00022024  00000+0  66101-3 0  99902 69844  53.1572 333.0498 0001781  90.5782 269.5424 15.34402491 13193

JSON: /api/v1/satellites/69844 · /tle

For live sub-satellite position, see the globe view (requires WebGL).

§ Visibility from observer

Set your observer location to see the next 7 days of passes ≥ 10°. The values pass through the URL so the page stays shareable.

No JS? Fill the form by hand. The geolocation button needs JavaScript.